Home > Weather > Al Jizah > Past weeks

Flag for Egypt Past Weather in Al Jizah, Egypt — Yesterday and Last 2 Weeks

Now
77 °F

Scattered clouds.


Feels Like: 79 °F
Forecast: 75 / 100 °F
Wind: 9 mph from North

Location: Cairo Airport

Current Time: Jul 30, 2016 at 7:32:15 AM

Latest Report: Jul 30, 2016 at 7:00 AM


Visibility: N/A

Pressure: 29.77 "Hg

Humidity: 79%

Dew Point: 70 °F

Location of Al JizahLocation

Past Weather in Al Jizah — Graph

°F

Al Jizah Temperature Yesterday

Maximum temperature yesterday: 93 °F (at 2:30 PM)
Minimum temperature yesterday: 77 °F (at 4:30 AM)
Average temperature yesterday: 85 °F

High & Low Weather Summary for the Past Weeks

 TemperatureHumidityPressure
High99 °F (Jul 21, 3:00 PM)100% (Jul 19, 10:00 PM)29.92 "Hg (Jul 19, 10:00 PM)
Low75 °F (Jul 19, 4:00 AM)18% (Jul 15, 1:00 PM)29.65 "Hg (Jul 19, 3:00 PM)
Average86 °F56%29.77 "Hg
* Reported Jul 15 6:00 AM — Jul 30 6:30 AM, Al Jizah, Weather by CustomWeather, © 2016

Note: Actual official high and low records may vary slightly from our data, if they occured in-between our weather recording intervals... More about our weather records

Advertising

Al Jizah Weather History for the Previous 24 Hours

Scroll right to see more
 ConditionsComfort  
Time TempWeatherWind HumidityBarometerVisibility
6:30 AM
Sat, Jul 30
77 °FPartly sunny.9 mph83%29.74 "HgN/A
6:00 AM77 °FPartly sunny.9 mph83%29.74 "HgN/A
5:30 AM77 °FPartly sunny.9 mph83%29.74 "HgN/A
5:00 AM77 °FPassing clouds.9 mph83%29.74 "HgN/A
4:30 AM77 °FPassing clouds.10 mph83%29.74 "HgN/A
4:00 AM77 °FPassing clouds.10 mph83%29.74 "HgN/A
3:30 AM77 °FPassing clouds.7 mph83%29.74 "HgN/A
3:00 AM77 °FClear.7 mph83%29.74 "Hg10 mi
2:30 AM77 °FClear.8 mph83%29.74 "Hg10 mi
2:00 AM79 °FWarm.No wind79%29.74 "HgN/A
1:30 AM79 °FClear.12 mph79%29.74 "Hg10 mi
1:00 AM79 °FClear.12 mph79%29.74 "Hg10 mi
12:30 AM79 °FClear.12 mph79%29.74 "Hg10 mi
12:00 AM79 °FClear.12 mph79%29.74 "Hg10 mi
11:30 PM
Fri, Jul 29
81 °FClear.12 mph74%29.74 "Hg10 mi
11:00 PM81 °FClear.12 mph74%29.74 "Hg10 mi
10:30 PM82 °FClear.14 mph70%29.74 "Hg10 mi
10:00 PM82 °FClear.12 mph70%29.74 "Hg10 mi
9:00 PM86 °FClear.13 mph62%29.74 "Hg10 mi
8:30 PM86 °FClear.15 mph62%29.74 "Hg10 mi
8:00 PM88 °FClear.15 mph59%29.71 "Hg10 mi
7:30 PM90 °FClear.10 mph55%29.71 "Hg10 mi
7:00 PM90 °FClear.10 mph49%29.71 "Hg10 mi
6:30 PM91 °FSunny.10 mph41%29.68 "Hg10 mi
6:00 PM91 °FSunny.10 mph44%29.68 "Hg10 mi
5:30 PM91 °FSunny.10 mph41%29.68 "Hg10 mi
5:00 PM93 °FSunny.12 mph36%29.68 "Hg10 mi
4:30 PM93 °FSunny.9 mph39%29.68 "Hg10 mi
4:00 PM93 °FSunny.12 mph39%29.68 "Hg10 mi
3:30 PM93 °FSunny.10 mph41%29.68 "Hg10 mi
3:00 PM93 °FSunny.9 mph41%29.68 "Hg10 mi
2:30 PM93 °FSunny.9 mph39%29.71 "Hg10 mi
2:00 PM91 °FSunny.9 mph38%29.71 "Hg10 mi
1:30 PM91 °FSunny.12 mph41%29.71 "Hg10 mi
1:00 PM91 °FSunny.12 mph36%29.71 "Hg10 mi
12:30 PM90 °FSunny.8 mph41%29.71 "Hg10 mi
12:00 PM90 °FSunny.8 mph41%29.74 "Hg10 mi
11:30 AM88 °FSunny.8 mph43%29.74 "Hg10 mi
11:00 AM86 °FSunny.8 mph49%29.74 "Hg10 mi
10:30 AM84 °FSunny.12 mph55%29.74 "Hg10 mi
10:00 AM84 °FSunny.12 mph55%29.74 "Hg10 mi
9:30 AM84 °FSunny.12 mph55%29.77 "Hg10 mi
9:00 AM82 °FSunny.12 mph58%29.77 "Hg10 mi
8:30 AM81 °FPartly sunny.9 mph66%29.77 "Hg4 mi
8:00 AM81 °FPartly sunny.9 mph66%29.77 "Hg4 mi
7:30 AM81 °FPartly sunny.12 mph66%29.77 "Hg4 mi
7:00 AM79 °FPartly sunny.12 mph70%29.77 "Hg4 mi
Weather by CustomWeather, © 2016

See weather overviewHow to use our weather pages